Tracking 34794 objects as of 19-Jul-2026
HD Live streaming from Space Station
objects crossing your sky now

STARLINK-32540

Track STARLINK-32540 now!
10-day predictions
STARLINK-32540 is classified as:


NORAD ID: 61723
Int'l Code: 2024-196S
Perigee: 468.8 km
Apogee: 471.0 km
Inclination: 53.2 °
Period: 93.8 minutes
Semi major axis: 6840 km
RCS: Unknown
Launch date: October 30, 2024
Source: United States (US)
Launch site: AIR FORCE EASTERN TEST RANGE (AFETR)
Your satellite tracking list
Your tracking list is empty




NASA's NSSDC Master Catalog

Two Line Element Set (TLE):
1 61723U 24196S   26199.32627711 -.00002977  00000-0 -77026-4 0  9990
2 61723  53.1597 177.3586 0001642  77.1587 282.9599 15.34385163 97678
Source of the keplerian elements: AFSPC